TimeEST,TemperatureF,Dew PointF,Humidity,Sea Level PressureIn,VisibilityMPH,Wind Direction,Wind SpeedMPH,Gust SpeedMPH,PrecipitationIn,Events,Conditions,WindDirDegrees,DateUTC
12:14 AM,28.4,26.6,93,30.13,7.0,Calm,Calm,-,N/A,,Overcast,0,2013-02-26 05:14:00
12:35 AM,28.4,26.6,93,30.13,10.0,Calm,Calm,-,N/A,,Overcast,0,2013-02-26 05:35:00
12:54 AM,28.4,26.6,93,30.14,10.0,SE,3.5,-,N/A,,Overcast,130,2013-02-26 05:54:00
1:15 AM,28.4,26.6,93,30.15,10.0,SE,3.5,-,N/A,,Overcast,130,2013-02-26 06:15:00
1:35 AM,28.4,26.6,93,30.15,10.0,Calm,Calm,-,N/A,,Overcast,0,2013-02-26 06:35:00
1:54 AM,28.4,26.6,93,30.15,10.0,Calm,Calm,-,N/A,,Overcast,0,2013-02-26 06:54:00
2:15 AM,28.4,26.6,93,30.16,10.0,SE,3.5,-,N/A,,Overcast,140,2013-02-26 07:15:00
2:35 AM,28.4,26.6,93,30.15,10.0,Calm,Calm,-,N/A,,Overcast,0,2013-02-26 07:35:00
2:54 AM,28.4,26.6,93,30.15,10.0,Calm,Calm,-,N/A,,Overcast,0,2013-02-26 07:54:00
3:15 AM,28.4,26.6,93,30.15,10.0,Calm,Calm,-,N/A,,Overcast,0,2013-02-26 08:15:00
3:34 AM,28.4,26.6,93,30.14,10.0,Calm,Calm,-,N/A,,Overcast,0,2013-02-26 08:34:00
3:54 AM,28.4,26.6,93,30.13,10.0,Calm,Calm,-,N/A,,Overcast,0,2013-02-26 08:54:00
4:14 AM,28.4,26.6,93,30.13,10.0,Calm,Calm,-,N/A,,Overcast,0,2013-02-26 09:14:00
4:34 AM,28.4,26.6,93,30.13,10.0,Calm,Calm,-,N/A,,Overcast,0,2013-02-26 09:34:00
4:55 AM,28.4,26.6,93,30.14,10.0,Calm,Calm,-,N/A,,Overcast,0,2013-02-26 09:55:00
5:14 AM,28.4,26.6,93,30.13,10.0,ENE,4.6,-,N/A,,Overcast,70,2013-02-26 10:14:00
5:34 AM,28.4,26.6,93,30.12,10.0,ENE,4.6,-,N/A,,Overcast,60,2013-02-26 10:34:00
5:55 AM,28.4,26.6,93,30.12,10.0,ENE,5.8,-,N/A,,Overcast,70,2013-02-26 10:55:00
6:14 AM,28.4,26.6,93,30.12,10.0,East,4.6,-,N/A,,Overcast,80,2013-02-26 11:14:00
6:35 AM,28.4,26.6,93,30.12,10.0,ENE,3.5,-,N/A,,Overcast,70,2013-02-26 11:35:00
6:55 AM,28.4,26.6,93,30.11,10.0,ENE,4.6,-,N/A,,Overcast,70,2013-02-26 11:55:00
7:14 AM,28.4,26.6,93,30.12,10.0,Calm,Calm,-,N/A,,Overcast,0,2013-02-26 12:14:00
7:35 AM,28.4,26.6,93,30.09,10.0,ENE,9.2,-,N/A,,Overcast,70,2013-02-26 12:35:00
7:55 AM,28.4,26.6,93,30.13,10.0,ENE,3.5,-,N/A,,Overcast,70,2013-02-26 12:55:00
8:14 AM,28.4,26.6,93,30.13,10.0,East,4.6,-,N/A,,Overcast,90,2013-02-26 13:14:00
8:35 AM,28.4,26.6,93,30.12,10.0,East,5.8,-,N/A,,Overcast,80,2013-02-26 13:35:00
8:55 AM,28.4,26.6,93,30.14,10.0,Calm,Calm,-,N/A,,Overcast,0,2013-02-26 13:55:00
9:14 AM,28.4,26.6,93,30.12,10.0,NE,4.6,-,N/A,,Overcast,40,2013-02-26 14:14:00
9:35 AM,28.4,26.6,93,30.12,10.0,ENE,4.6,-,N/A,,Overcast,70,2013-02-26 14:35:00
9:54 AM,30.2,28.4,93,30.12,10.0,East,6.9,-,N/A,,Overcast,80,2013-02-26 14:54:00
10:14 AM,30.2,28.4,93,30.12,10.0,ESE,3.5,-,N/A,,Overcast,110,2013-02-26 15:14:00
10:35 AM,30.2,26.6,86,30.11,10.0,East,8.1,-,N/A,,Overcast,80,2013-02-26 15:35:00
10:54 AM,32.0,28.4,87,30.10,10.0,East,8.1,-,N/A,,Overcast,80,2013-02-26 15:54:00
11:15 AM,32.0,26.6,80,30.09,10.0,East,8.1,-,N/A,,Overcast,80,2013-02-26 16:15:00
11:35 AM,32.0,26.6,80,30.08,10.0,ENE,11.5,-,N/A,,Overcast,70,2013-02-26 16:35:00
11:54 AM,32.0,28.4,87,30.08,10.0,ENE,11.5,17.3,N/A,,Overcast,60,2013-02-26 16:54:00
12:15 PM,32.0,28.4,87,30.08,10.0,ENE,12.7,19.6,N/A,,Overcast,60,2013-02-26 17:15:00
12:35 PM,30.2,26.6,86,30.08,10.0,ENE,10.4,-,N/A,,Overcast,70,2013-02-26 17:35:00
12:54 PM,32.0,28.4,87,30.06,10.0,ENE,10.4,-,N/A,,Overcast,70,2013-02-26 17:54:00
1:15 PM,32.0,26.6,80,30.05,10.0,ENE,12.7,-,N/A,,Overcast,70,2013-02-26 18:15:00
1:34 PM,30.2,26.6,86,30.04,10.0,ENE,10.4,16.1,N/A,,Overcast,70,2013-02-26 18:34:00
1:54 PM,32.0,26.6,80,30.03,10.0,ENE,11.5,18.4,N/A,,Overcast,60,2013-02-26 18:54:00
2:15 PM,30.2,24.8,80,30.02,10.0,NE,16.1,-,N/A,,Overcast,50,2013-02-26 19:15:00
2:34 PM,30.2,24.8,80,30.02,10.0,ENE,11.5,17.3,N/A,,Overcast,70,2013-02-26 19:34:00
2:54 PM,30.2,26.6,86,30.00,10.0,ENE,11.5,18.4,N/A,,Overcast,60,2013-02-26 19:54:00
3:15 PM,30.2,24.8,80,29.99,10.0,NE,12.7,17.3,N/A,,Overcast,50,2013-02-26 20:15:00
3:34 PM,30.2,24.8,80,29.98,10.0,NE,17.3,23.0,N/A,,Overcast,50,2013-02-26 20:34:00
3:55 PM,30.2,24.8,80,29.99,10.0,East,13.8,-,N/A,,Overcast,80,2013-02-26 20:55:00
4:15 PM,30.2,24.8,80,29.98,10.0,ENE,10.4,-,N/A,,Overcast,70,2013-02-26 21:15:00
4:34 PM,30.2,24.8,80,29.98,10.0,ENE,10.4,18.4,N/A,,Overcast,60,2013-02-26 21:34:00
4:55 PM,30.2,24.8,80,29.97,10.0,ENE,13.8,19.6,N/A,,Overcast,60,2013-02-26 21:55:00
5:15 PM,30.2,24.8,80,29.97,10.0,NE,11.5,16.1,N/A,,Overcast,50,2013-02-26 22:15:00
5:34 PM,30.2,24.8,80,29.97,10.0,ENE,6.9,-,N/A,,Overcast,70,2013-02-26 22:34:00
5:55 PM,30.2,26.6,86,29.97,10.0,ENE,8.1,-,N/A,,Overcast,60,2013-02-26 22:55:00
6:15 PM,30.2,26.6,86,29.97,10.0,ENE,8.1,-,N/A,,Overcast,60,2013-02-26 23:15:00
6:34 PM,30.2,26.6,86,29.97,10.0,ENE,9.2,-,N/A,,Overcast,70,2013-02-26 23:34:00
6:55 PM,30.2,26.6,86,29.97,10.0,ENE,8.1,-,N/A,,Overcast,60,2013-02-26 23:55:00
7:14 PM,30.2,24.8,80,29.98,10.0,ENE,10.4,-,N/A,,Overcast,70,2013-02-27 00:14:00
7:35 PM,30.2,24.8,80,29.98,10.0,ENE,11.5,-,N/A,,Overcast,70,2013-02-27 00:35:00
7:54 PM,30.2,26.6,86,29.98,10.0,NE,9.2,-,N/A,,Overcast,50,2013-02-27 00:54:00
8:14 PM,30.2,24.8,80,29.98,10.0,ENE,13.8,21.9,N/A,,Overcast,60,2013-02-27 01:14:00
8:35 PM,28.4,24.8,86,29.97,10.0,ENE,9.2,19.6,N/A,,Mostly Cloudy,60,2013-02-27 01:35:00
8:54 PM,28.4,24.8,86,29.96,10.0,NE,9.2,-,N/A,,Scattered Clouds,50,2013-02-27 01:54:00
9:15 PM,26.6,23.0,86,29.95,10.0,NE,10.4,-,N/A,,Clear,40,2013-02-27 02:15:00
9:34 PM,26.6,23.0,86,29.94,10.0,NE,9.2,-,N/A,,Clear,40,2013-02-27 02:34:00
9:55 PM,26.6,23.0,86,29.93,10.0,NE,10.4,17.3,N/A,,Scattered Clouds,50,2013-02-27 02:55:00
10:15 PM,26.6,23.0,86,29.92,10.0,NNE,9.2,-,N/A,,Clear,30,2013-02-27 03:15:00
10:34 PM,26.6,23.0,86,29.92,10.0,NNE,9.2,-,N/A,,Clear,20,2013-02-27 03:34:00
10:54 PM,26.6,23.0,86,29.91,10.0,NNE,10.4,-,N/A,,Clear,30,2013-02-27 03:54:00
11:15 PM,26.6,23.0,86,29.90,10.0,NNE,9.2,-,N/A,,Clear,20,2013-02-27 04:15:00
11:54 PM,26.6,23.0,86,29.88,10.0,North,8.1,-,N/A,,Clear,10,2013-02-27 04:54:00